Погода в Тулите

Канада     64°54′05″N   125°34′30″W
темп.,
°C
ветер,
м/с
пор.,
м/с
влажн.,
%
обл.,
%
осадки,
мм/ч
давл.,
гПа
погр.,
м
6 мая, чт
чт600:00+1св2399100 0.0 1025105
03:00+1св2399100 0.0 102588
06:00+1св2399100 0.0 102596
09:00+1св2499100 0.0 1024195
12:00+3всв2497100 0.0 1023344
15:00+5в2586100 0.0 1021350
18:00+5в2591100 0.0 1020179
21:00+3в2494100 0.0 101988
7 мая, пт
пт700:00+3в3693100 0.0 1017156
03:00+2в2296100 0.0 101732
06:00+2всв1197100 0.0 101627
09:00+2св1296100 0.0 101654
12:00+3сз1193100 0.0 101698
15:00+4зсз2290100 0.0 1016235
18:00+4зсз1294100 0.0 101775
21:00+3сз1195100 0.0 101715
8 мая, сб
сб800:00+2зсз1197100 0.0 101715
03:00+1з1197100 0.0 101727
06:00+1зсз1197100 0.0 101623
09:00+2зсз1195100 0.0 101642
12:00+3зсз1191100 0.0 1016144
15:00+4зсз0088100 0.0 1015302
18:00+3зсз2396100 0.6 101570
21:00+2з2499100 2.2 1016143
9 мая, вс
вс900:00+1з2499100 3.5 1017193
03:00+1з2499100 1.4 1018333
06:000з2499100 2.4 1019227
09:00+1з249789 0.8 1020242
12:00+4зсз457576 0.9 1020799
15:00+6зсз577056 0.0 1020925
18:00+6зсз677057 0.0 1021819
21:00+5зсз57786 0.0 1021444
10 мая, пн
пн1000:00+1з238910 0.0 102274
03:000зсз229173 0.0 102360
06:00+1з229076 0.0 1024100
09:00+2з228484 0.0 1024471
12:00+3сз2373100 0.1 1024769
15:00+4сз2271100 0.1 1024769
18:00+4ссз1272100 0.1 1024685
21:00+3ссв128195 0.1 1024565